Weather in Malayer

Iran     34°17′19″N   48°49′16″E
temp.,
°C
wind,
m/s
gust,
m/s
humid.,
%
clouds,
%
prec.,
mm/h
press.,
hPa
HPBL,
m
17 august, wed
wed1701:30+24se22150 0.0 100911
04:30+22ene22180 0.0 100911
07:30+23ne22180 0.0 101013
10:30+30ne33110 0.0 1008972
13:30+34ne6560 0.0 10063990
16:30+34ne7460 0.0 10044255
19:30+31ene71081 0.0 1005453
22:30+25e33130 0.0 100719
18 august, thu
thu1801:30+22e22165 0.0 100811
04:30+20ne22180 0.0 100811
07:30+21ene22210 0.0 100920
10:30+28ne23130 0.0 10081019
13:30+32nne5490 0.0 10053166
16:30+33ne5480 0.0 10033722
19:30+30ene69107 0.0 1003338
22:30+23e22170 0.0 100615
19 august, fri
fri1901:30+21e22200 0.0 100711
04:30+19ene22210 0.0 100711
07:30+20ne22220 0.0 100815
10:30+27ne22130 0.0 1007953
13:30+32nne4370 0.0 10042910
16:30+33nne64721 0.0 10024345
19:30+29ene69910 0.0 1003296
22:30+23e33145 0.0 100619
20 august, sat
sat2001:30+21ene221589 0.0 100715
04:30+19ene221735 0.0 100711
07:30+20ne111823 0.0 100911
10:30+27ne22104 0.0 1007904
13:30+32nne34935 0.0 10044689
16:30+31ssw5411100 0.0 10034071
19:30+28ene5614100 0.0 1004467
22:30+24ese331793 0.0 100737
21 august, sun
sun2101:30+20ne221632 0.0 100811
04:30+18ne221827 0.0 100816
07:30+18ene222123 0.0 101026
10:30+25ne33132 0.0 1009907
13:30+30nne44123 0.0 10052866
16:30+29e6512100 0.0 10043816
19:30+25se571837 0.0 1006269
22:30+22e332279 0.0 100831